This is the latest recevied weather packets stored in our database for station/object KD7MPG-3. If no packets are shown the sender has not sent any weather packets the latest 10 day(s).
| Time | Temp. | Humidity | Pressure | Rain* | Wind** | Luminosity | Snow |
|---|---|---|---|---|---|---|---|
| 1777827638 | 20.56° C | 75% | 1020 hPa | 0 mm | - | - | - |
| 1777827337 | 20.56° C | 73% | 1020 hPa | 0 mm | - | - | - |
| 1777827034 | 20° C | 75% | 1020 hPa | 0 mm | - | - | - |
| 1777826734 | 20° C | 75% | 1020 hPa | 0 mm | - | - | - |
| 1777826435 | 19.44° C | 79% | 1019.9 hPa | 0 mm | - | - | - |
| 1777826135 | 19.44° C | 77% | 1020.1 hPa | 0 mm | - | - | - |
| 1777825830 | 18.89° C | 77% | 1020 hPa | 0 mm | - | - | - |
| 1777825530 | 18.89° C | 79% | 1020.1 hPa | 0 mm | - | - | - |
| 1777825237 | 18.33° C | 81% | 1020.2 hPa | 0 mm | - | - | - |
| 1777824930 | 18.33° C | 80% | 1020.2 hPa | 0 mm | - | - | - |
| 1777824628 | 18.33° C | 81% | 1020.2 hPa | 0 mm | - | - | - |
| 1777824329 | 17.78° C | 81% | 1020.4 hPa | 0 mm | - | - | - |
| 1777824026 | 17.78° C | 82% | 1020.3 hPa | 0 mm | - | - | - |
| 1777823724 | 17.22° C | 84% | 1020.3 hPa | 0 mm | - | - | - |
| 1777823423 | 16.67° C | 85% | 1020.3 hPa | 0 mm | - | - | - |
| 1777823122 | 16.67° C | 86% | 1020.3 hPa | 0 mm | - | - | - |
| 1777822822 | 16.11° C | 87% | 1020.3 hPa | 0 mm | - | - | - |
| 1777822523 | 15.56° C | 88% | 1020.3 hPa | 0 mm | - | - | - |
| 1777822218 | 14.44° C | 90% | 1020.3 hPa | 0 mm | - | - | - |
| 1777821918 | 14.44° C | 91% | 1020.3 hPa | 0 mm | - | - | - |
| 1777821616 | 13.89° C | 91% | 1020.2 hPa | 0 mm | - | - | - |
| 1777821317 | 13.89° C | 91% | 1020.3 hPa | 0 mm | - | - | - |
| 1777821016 | 13.33° C | 91% | 1020.3 hPa | 0 mm | - | - | - |
| 1777820717 | 13.33° C | 91% | 1020.4 hPa | 0 mm | - | - | - |
| 1777820415 | 13.33° C | 92% | 1020.3 hPa | 0 mm | - | - | - |
* Rain latest hour (hover to see other rain measurements)
** Current wind speed in m/s (hover to see current wind gust speed)